clima

HORA PREDICCIÓN TEMPERATURA VIENTO HUMEDAD
2020-05-27 02:00:00 Mayormente nublado 8 1.75 0.98
2020-05-27 03:00:00 Mayormente nublado 8 1.58 0.99
2020-05-27 04:00:00 Nublado 7 1.63 0.99
2020-05-27 05:00:00 Nublado 7 1.73 1
2020-05-27 06:00:00 Nublado 7 1.76 1
2020-05-27 07:00:00 Nublado 6 1.81 1
2020-05-27 08:00:00 Nublado 7 1.85 0.99
2020-05-27 09:00:00 Nublado 7 1.76 0.94
2020-05-27 10:00:00 Nublado 8 1.63 0.86
2020-05-27 11:00:00 Nublado 10 1.77 0.8
2020-05-27 12:00:00 Mayormente nublado 11 2.5 0.75
2020-05-27 13:00:00 Mayormente nublado 12 3.48 0.71
2020-05-27 14:00:00 Mayormente nublado 13 4.18 0.68
2020-05-27 15:00:00 Parcialmente nublado 12 4.22 0.67
2020-05-27 16:00:00 Despejado 12 3.96 0.68
2020-05-27 17:00:00 Despejado 11 3.78 0.69
2020-05-27 18:00:00 Despejado 10 3.87 0.71
2020-05-27 19:00:00 Despejado 9 3.98 0.75
2020-05-27 20:00:00 Despejado 8 4.01 0.8
2020-05-27 21:00:00 Despejado 8 4.03 0.84
2020-05-27 22:00:00 Despejado 8 4.06 0.92
2020-05-27 23:00:00 Despejado 7 4.06 0.96

Mesón de informaciones

(56 65) 229 4161

Horario

24 horas del día.

Edificio Terminal de pasajeros,

Aeropuerto El Tepual Puerto Montt

Región de los Lagos, Chile.